Flag for Germany Weather past 2 weeks in Waldkraiburg, Bavaria, Germany

Now
32 °F

Chilly.


Feels Like: 24 °F
Forecast: 20 / 34 °F
Wind: 9 mph from West

Location: Erding Airport

Current Time: Jan 27, 2015 at 2:14:04 AM

Latest Report: Jan 27, 2015 at 1:20 AM


Visibility: 1 mi

Pressure: 30.01 "Hg

Humidity: 100%

Dew point: 32 °F

Location of WaldkraiburgLocation

Historic Weather in Waldkraiburg — Graph

°F

Waldkraiburg temperature yesterday

Maximum temperature yesterday: 34 °F (at 12:20 PM)
Minimum temperature yesterday: 30 °F (at 12:20 AM)
Average temperature yesterday: 31 °F

Past Weeks' High & Low Weather Summary

 TemperatureHumidityPressure
High54 °F (Jan 13, 1:20 PM)100% (Jan 15, 1:20 AM)30.33 "Hg (Jan 15, 1:20 AM)
Low28 °F (Jan 13, 7:20 AM)32% (Jan 13, 11:20 AM)29.77 "Hg (Jan 15, 9:20 PM)
Average34 °F87%30.01 "Hg
* Reported Jan 12 12:20 AM — Jan 27 12:20 AM, Waldkraiburg, Weather by CustomWeather, © 2014

Note: Actual official high and low records may vary slightly from our data, if they occured in-between our weather recording intervals... More about our weather records

Advertising

Waldkraiburg weather history for previous 24 hours

 ConditionsComfort  
Time TempWeatherWind HumidityBarometerVisibility
12:20 AM
Jan 27
32 °FChilly.8 mph100%30.01 "Hg1 mi
11:20 PM
Jan 26
30 °FChilly.6 mph100%30.04 "Hg1 mi
10:20 PM30 °FChilly.7 mph100%30.04 "Hg1 mi
9:20 PM30 °FChilly.7 mph100%30.07 "Hg1 mi
8:20 PM32 °FChilly.5 mph93%30.09 "Hg1 mi
7:20 PM32 °FChilly.6 mph80%30.12 "Hg2 mi
6:20 PM32 °FChilly.5 mph75%30.15 "Hg3 mi
5:20 PM30 °FChilly.2 mph86%30.15 "Hg3 mi
4:20 PM32 °FPassing clouds.3 mph80%30.15 "HgN/A
3:20 PM34 °FPassing clouds.3 mph75%30.18 "HgN/A
2:20 PM34 °FPassing clouds.6 mph75%30.21 "HgN/A
1:20 PM34 °FPartly sunny.6 mph75%30.24 "HgN/A
12:20 PM34 °FPartly sunny.5 mph75%30.24 "HgN/A
11:20 AM32 °FBroken clouds.6 mph80%30.27 "HgN/A
10:20 AM32 °FBroken clouds.8 mph80%30.27 "HgN/A
9:20 AM32 °FOvercast.6 mph87%30.30 "HgN/A
8:20 AM30 °FLow clouds.6 mph93%30.30 "HgN/A
7:20 AM30 °FLight snow. Low clouds.7 mph100%30.30 "HgN/A
6:20 AM30 °FChilly.8 mph100%30.30 "Hg1 mi
5:20 AM30 °FChilly.7 mph93%30.30 "Hg2 mi
4:20 AM30 °FChilly.7 mph93%30.30 "Hg2 mi
3:20 AM30 °FChilly.8 mph100%30.30 "Hg2 mi
2:20 AM30 °FChilly.8 mph100%30.30 "Hg1 mi
Weather by CustomWeather, © 2014

See weather overviewHow to use our weather pages